This is the latest recevied weather packets stored in our database for station/object K7AEL. If no packets are shown the sender has not sent any weather packets the latest 10 day(s).
| Time | Temp. | Humidity | Pressure | Rain* | Wind** | Luminosity | Snow |
|---|---|---|---|---|---|---|---|
| 1777499437 | 29.44° C | 11% | 1014.3 hPa | 0 mm | - | 242 W/m² | - |
| 1777499135 | 30° C | 11% | 1014.3 hPa | 0 mm | - | 243 W/m² | - |
| 1777498831 | 29.44° C | 12% | 1014.5 hPa | 0 mm | - | 248 W/m² | - |
| 1777498528 | 30° C | 12% | 1014.7 hPa | 0 mm | - | 288 W/m² | - |
| 1777498224 | 30° C | 12% | 1014.5 hPa | 0 mm | - | 401 W/m² | - |
| 1777497923 | 29.44° C | 12% | 1014.7 hPa | 0 mm | - | 327 W/m² | - |
| 1777497618 | 30° C | 11% | 1014.8 hPa | 0 mm | - | 269 W/m² | - |
| 1777497315 | 30° C | 11% | 1015 hPa | 0 mm | - | 512 W/m² | - |
| 1777497011 | 30° C | 11% | 1015.2 hPa | 0 mm | - | 418 W/m² | - |
| 1777496708 | 29.44° C | 12% | 1015.1 hPa | 0 mm | - | 538 W/m² | - |
| 1777496404 | 29.44° C | 12% | 1015 hPa | 0 mm | - | 338 W/m² | - |
| 1777496101 | 29.44° C | 12% | 1015.2 hPa | 0 mm | - | 287 W/m² | - |
| 1777495797 | 29.44° C | 12% | 1015.2 hPa | 0 mm | - | 321 W/m² | - |
| 1777495493 | 30° C | 12% | 1015.1 hPa | 0 mm | - | 315 W/m² | - |
| 1777495189 | 29.44° C | 11% | 1015.4 hPa | 0 mm | - | 628 W/m² | - |
| 1777494887 | 29.44° C | 11% | 1015.2 hPa | 0 mm | - | 563 W/m² | - |
| 1777494584 | 28.89° C | 12% | 1015.2 hPa | 0 mm | - | 352 W/m² | - |
| 1777494280 | 28.33° C | 12% | 1015.4 hPa | 0 mm | - | 421 W/m² | - |
| 1777493971 | 28.89° C | 11% | 1015.6 hPa | 0 mm | - | 506 W/m² | - |
| 1777493670 | 28.89° C | 11% | 1015.4 hPa | 0 mm | - | 412 W/m² | - |
| 1777493367 | 28.89° C | 11% | 1015.4 hPa | 0 mm | - | 358 W/m² | - |
| 1777493063 | 29.44° C | 11% | 1015.6 hPa | 0 mm | - | 542 W/m² | - |
| 1777492760 | 28.89° C | 11% | 1015.5 hPa | 0 mm | - | 667 W/m² | - |
| 1777492455 | 30° C | 10% | 1015.6 hPa | 0 mm | - | 512 W/m² | - |
| 1777492153 | 30° C | 11% | 1015.8 hPa | 0 mm | - | 688 W/m² | - |
* Rain latest hour (hover to see other rain measurements)
** Current wind speed in m/s (hover to see current wind gust speed)